Jenks, OK

4:41 AM CST on February 27, 2017 (GMT -0600)
Jones Jr.

Weather History for KRVS - November, 2013

Change the Weather History Date:

Monday, November 11, 2013

  Actual Average (KTUL) Record (KTUL)
Temperature  
Mean Temperature 59 °F -  
Max Temperature 72 °F 59 °F 85 °F (1989)
Min Temperature 44 °F 37 °F 17 °F (1950)
Degree Days  
Heating Degree Days 6    
Growing Degree Days 9 (Base 50)    
Moisture  
Dew Point 48 °F    
Average Humidity 74    
Maximum Humidity 93    
Minimum Humidity 51    
Precipitation  
Precipitation 0.00 in - - ()
Sea Level Pressure  
Sea Level Pressure 30.29 in    
Wind  
Wind Speed 4 mph (North)    
Max Wind Speed 21 mph    
Max Gust Speed 33 mph    
Visibility 10 miles    
Events      
Averages and records for this station are not official NWS values.
T = Trace of Precipitation, MM = Missing Value Source: NWS Daily Summary

Daily Weather History Graph

Daily Weather History Graph

Search for Another Location

Airport or City:

Trip Planner

Search our weather history database for the weather conditions in past years. The results will help you decide how hot, cold, wet, or windy it might be!

Date:

Astronomy

Nov. 11, 2013 Rise Set
Actual Time 6:56 AM CST 5:18 PM CST
Civil Twilight 6:29 AM CST 5:45 PM CST
Nautical Twilight 5:58 AM CST 6:16 PM CST
Astronomical Twilight 5:28 AM CST 6:46 PM CST
Moon 1:50 PM CST (11/11) 12:54 AM CST (11/11)
Length of Visible Light 11h 16m
Length of Day
10h 22m
Waxing Gibbous, 66% of the Moon is Illuminated
Nov 11
Waxing Gibbous
Nov 17
Full
Nov 25
Last Quarter
Dec 2
New
Dec 9
First Quarter

Hourly Weather History & Observations

Time (CST) Temp. Windchill Dew Point Humidity Pressure Visibility Wind Dir Wind Speed Gust Speed Precip Events Conditions
12:53 AM 46.9 °F - 45.0 °F 93% 30.28 in 10.0 mi Calm Calm - N/A   Clear
1:53 AM 46.9 °F - 45.0 °F 93% 30.28 in 10.0 mi Calm Calm - N/A   Scattered Clouds
2:53 AM 46.9 °F - 45.0 °F 93% 30.27 in 10.0 mi Calm Calm - N/A   Overcast
3:53 AM 50.0 °F - 46.9 °F 89% 30.26 in 10.0 mi Calm Calm - N/A   Overcast
4:53 AM 50.0 °F - 46.0 °F 86% 30.26 in 10.0 mi Calm Calm - N/A   Overcast
5:53 AM 51.1 °F - 48.0 °F 89% 30.25 in 10.0 mi Calm Calm - N/A   Overcast
6:53 AM 53.1 °F - 46.9 °F 80% 30.26 in 10.0 mi SSW 3.5 mph - N/A   Overcast
7:53 AM 54.0 °F - 48.9 °F 83% 30.27 in 10.0 mi Calm Calm - N/A   Overcast
8:53 AM 57.0 °F - 48.9 °F 74% 30.30 in 10.0 mi South 5.8 mph - N/A   Overcast
9:53 AM 59.0 °F - 48.0 °F 67% 30.29 in 10.0 mi South 5.8 mph - N/A   Overcast
10:53 AM 63.0 °F - 48.0 °F 58% 30.27 in 10.0 mi South 10.4 mph - N/A   Scattered Clouds
11:53 AM 68.0 °F - 50.0 °F 52% 30.25 in 10.0 mi SSW 6.9 mph - N/A   Scattered Clouds
12:53 PM 70.0 °F - 52.0 °F 53% 30.22 in 10.0 mi WSW 5.8 mph - N/A   Partly Cloudy
1:53 PM 71.1 °F - 52.0 °F 51% 30.20 in 10.0 mi Calm Calm - N/A   Mostly Cloudy
2:53 PM 72.0 °F - 53.1 °F 51% 30.19 in 10.0 mi Calm Calm - N/A   Overcast
3:53 PM 72.0 °F - 54.0 °F 53% 30.19 in 10.0 mi Variable 3.5 mph - N/A   Overcast
4:53 PM 70.0 °F - 55.0 °F 59% 30.21 in 10.0 mi Calm Calm - N/A   Overcast
5:53 PM 66.0 °F - 55.0 °F 68% 30.24 in 10.0 mi North 8.1 mph - N/A   Overcast
6:53 PM 64.0 °F - 55.0 °F 73% 30.27 in 10.0 mi North 10.4 mph 17.3 mph N/A   Overcast
7:13 PM 62.6 °F - 55.4 °F 77% 30.27 in 10.0 mi North 10.4 mph - N/A   Overcast
7:53 PM 62.1 °F - 55.0 °F 78% 30.31 in 10.0 mi North 9.2 mph 17.3 mph N/A   Overcast
8:18 PM 53.6 °F - 48.2 °F 82% 30.32 in 8.0 mi North 17.3 mph 28.8 mph N/A   Overcast
8:53 PM 50.0 °F - 45.0 °F 83% 30.37 in 10.0 mi North 20.7 mph 33.4 mph N/A   Overcast
9:53 PM 46.9 °F - 41.0 °F 80% 30.41 in 10.0 mi North 15.0 mph 24.2 mph N/A   Overcast
10:24 PM 46.4 °F 39.5 °F 39.2 °F 76% 30.42 in 10.0 mi North 17.3 mph 28.8 mph N/A   Overcast
10:53 PM 46.0 °F 41.0 °F 39.9 °F 79% 30.46 in 10.0 mi NNE 10.4 mph 29.9 mph N/A   Overcast
11:53 PM 44.1 °F 38.6 °F 37.0 °F 76% 30.51 in 10.0 mi North 10.4 mph 25.3 mph N/A   Overcast